This demonstration page uses our WeatherBlox Daily Observations layout. Learn more.

Left ArrowRight Arrow

39.29038, -76.61219

Hourly Observations for July 22, 2021

Temp ( °F °C ) Dew Point ( °F °C ) Humidity (%) Winds ( mph kmh ) Pressure ( in mb ) Visibility ( mi km ) Precip ( " mm )
12:54 am 00:54 Clear 69 20.6 63 17.2 81 81 NW 3 6 30.04 1017 10 16 N/A
1:54 am 01:54 Clear 67 19.4 62 16.7 84 84 WNW 3 6 30.04 1017 10 16 N/A
2:54 am 02:54 Clear 65 18.3 61 16.1 87 87 W 3 6 30.05 1018 10 16 N/A
3:54 am 03:54 Clear 64 17.8 59 15 84 84 WNW 5 7 30.06 1018 10 16 N/A
4:54 am 04:54 Clear 62 16.7 57 13.9 84 84 WNW 5 7 30.07 1018 10 16 N/A
5:54 am 05:54 Clear 61 16.1 57 13.9 87 87 W 6 9 30.08 1019 10 16 N/A
6:54 am 06:54 Mostly Sunny 63 17.2 58 14.4 84 84 W 6 9 30.09 1019 10 16 N/A
7:54 am 07:54 Partly Cloudy 68 20 57 13.9 68 68 NW 3 6 30.11 1020 10 16 N/A
8:54 am 08:54 Mostly Cloudy 72 22.2 58 14.4 61 61 NW 7 11 30.13 1020 10 16 N/A
9:54 am 09:54 Mostly Cloudy 76 24.4 53 11.7 45 45 VRB 7 11 30.13 1020 10 16 N/A
10:54 am 10:54 Mostly Cloudy 80 26.7 51 10.6 37 37 NNW 9 15 30.13 1020 10 16 N/A
11:54 am 11:54 Mostly Cloudy 82 27.8 51 10.6 34 34 N 8 13 30.14 1021 10 16 N/A
12:54 pm 12:54 Mostly Cloudy 83 28.3 50 10 32 32 NNW 10 17 30.12 1020 10 16 N/A
1:54 pm 13:54 Mostly Cloudy 82 27.8 50 10 33 33 NW 8 13 30.11 1020 10 16 N/A
2:54 pm 14:54 Mostly Cloudy 82 27.8 51 10.6 34 34 NNW 7 11 30.10 1019 10 16 N/A
3:54 pm 15:54 Mostly Cloudy 82 27.8 52 11.1 35 35 VRB 3 6 30.10 1019 10 16 N/A
4:54 pm 16:54 Partly Cloudy 84 28.9 51 10.6 32 32 WNW 10 17 30.10 1019 10 16 N/A
5:54 pm 17:54 Partly Cloudy 83 28.3 51 10.6 33 33 NW 8 13 30.10 1019 10 16 N/A
6:54 pm 18:54 Partly Cloudy 81 27.2 52 11.1 37 37 WNW 7 11 30.11 1020 10 16 N/A
7:54 pm 19:54 Mostly Sunny 79 26.1 53 11.7 41 41 VRB 5 7 30.13 1020 10 16 N/A
8:54 pm 20:54 Mostly Clear 75 23.9 55 12.8 50 50 N N/A 30.13 1020 10 16 N/A
9:54 pm 21:54 Mostly Clear 72 22.2 56 13.3 57 57 VRB 3 6 30.14 1021 10 16 N/A
10:54 pm 22:54 Partly Cloudy 66 18.9 57 13.9 73 73 W 3 6 30.15 1021 10 16 N/A
11:54 pm 23:54 Mostly Cloudy 68 20 57 13.9 68 68 N N/A 30.15 1021 10 16 N/A

Powered by AerisWeather